SCP
-0 -0 -0 -0 -0 0 0 0 -0 -0 -0 0 0 0 0 0 0 -0 0 0 0 0 0 0 0 0 0 0 0 0 0 0 0 0 0 0 0 0 0 0 0 0 0 0 0
-0 -0 -0 -0 0 -0 0 -0 -0 -0 0 0 0 0 0 0 0 -0 0 0 0 0 0 0 0 0 0 0 0 0 0 0 0 0 0 0 0 0 0 0 0 0 0 0 0
-0 -0 -0 0 0 0 0 0 -0 -0 0 0 0 0 0 0 0 0 0 0 0 0 0 0 0 0 0 0 0 0 0 0 0 0 0 0 0 0 0 0 -0 0 0 0 0
-0 -0 -0 -0 -0 -0 0 -0 -0 -0 0 0 0 0 0 0 0 0 0 0 0 -0 -0 0 0 0 0 0 0 0 0 0 0 0 0 0 0 0 0 0 0 0 0 0 0
-0 0 0 -0 -0 -0 0 -0 -0 0 0 0 0 -0 0 0 0 0 0 0 0 0 -0 -0 0 0 0 0 0 0 0 0 0 0 0 0 0 0 0 0 0 0 0 0 0
0 0 0 -0 -0 -0 0 0 0 0 0 0 0 0 0 0 0 0 0 0 0 0 0 0 0 0 0 0 0 0 0 0 0 0 0 0 0 0 0 0 0 0 0 0 0
-0 -0 -0 -0 -0 0 0 0 0 0 0 0 0 0 0 0 0 0 0 -0 0 0 -0 0 0 0 0 0 0 0 0 0 0 0 0 0 0 0 0 -0 0 0 0 0 0
-0 -0 -0 -0 -0 -0 0 0 0 0 0 0 0 0 0 0 0 0 0 0 0 0 -0 0 0 0 0 0 0 0 0 0 0 0 0 0 0 0 0 0 0 0 0 0 0
-0 -0 -0 -0 -0 0 0 0 0 0 0 0 0 0 0 0 0 0 0 0 -0 0 0 0 0 0 0 0 0 0 0 0 0 0 0 0 0 0 0 0 0 0 0 0 0
-0 -0 -0 -0 -0 0 0 0 0 0 0 0 0 0 0 0 0 0 0 -0 -0 0 -0 0 0 0 0 0 0 0 0 0 0 0 0 0 0 0 0 0 0 0 0 0 0
-0 -0 -0 -0 0 0 0 0 0 0 0 0 0 0 0 0 0 0 0 -0 -0 0 -0 -0 0 0 0 0 0 0 0 0 0 0 0 0 0 0 0 0 0 0 0 0 0
-0 -0 -0 -0 0 0 0 0 0 0 0 0 0 0 0 0 0 0 0 0 0 0 -0 -0 0 0 0 0 0 0 0 0 0 0 0 0 0 0 0 0 0 0 0 0 0
-0 -0 -0 -0 0 0 0 0 0 0 0 0 0 0 0 0 0 0 0 -0 0 0 0 0 0 0 0 0 0 0 0 0 0 0 0 0 0 0 0 0 0 0 0 0 0
-0 -0 -0 -0 0 0 0 0 0 0 0 0 0 0 0 0 0 0 0 0 0 0 0 0 0 0 0 0 0 0 0 0 0 0 0 0 0 0 0 0 0 0 0 0 0
-0 -0 0 0 0 0 0 0 0 0 0 0 0 0 0 0 0 0 0 0 0 0 0 0 0 0 0 0 0 0 0 0 0 0 0 0 0 0 0 0 0 0 0 0 0
0 -0 -0 0 0 0 0 0 0 0 0 0 0 0 0 0 0 0 0 0 -0 0 0 0 0 0 0 0 -0 0 0 0 -0 0 0 -0 0 0 0 0 0 0 0 0 0
-0 -0 -0 0 0 -0 0 0 0 0 0 0 0 0 0 0 0 0 0 0 0 0 0 0 0 0 0 0 -0 0 0 0 0 0 0 0 0 -0 0 0 0 0 0 0 0
-0 0 0 0 0 0 0 0 0 0 0 0 0 0 0 0 0 0 0 0 0 0 0 0 0 0 0 0 0 -0 0 0 -0 0 0 0 0 0 0 0 0 0 0 0 0
-0 0 0 0 0 0 0 0 0 0 0 0 0 0 0 0 0 0 0 0 0 0 0 0 0 0 0 0 0 0 0 0 0 -0 0 0 0 0 -0 0 0 0 0 0 0
0 0 0 -0 -0 0 0 0 0 0 0 0 0 0 0 0 0 0 0 0 0 0 0 0 0 0 0 0 0 0 -0 0 0 0 0 0 0 0 -0 -0 0 0 0 0 0
0 0 0 -0 0 0 0 0 0 0 0 0 0 0 0 0 0 0 0 0 0 0 0 0 0 0 0 0 0 0 0 0 0 0 0 0 0 0 0 0 0 0 0 0 0
0 0 0 -0 0 -0 -0 -0 0 0 0 0 0 0 0 0 0 0 0 0 0 0 0 0 0 0 0 0 0 0 0 0 0 0 0 0 0 0 -0 0 0 -0 0 0 0
0 -0 0 -0 -0 -0 0 0 0 0 0 0 0 0 0 0 0 0 0 0 0 0 0 0 0 0 0 0 0 0 0 -0 -0 -0 -0 0 0 0 0 0 0 0 0 0 0
0 0 0 -0 -0 0 0 0 0 0 0 0 0 0 0 0 0 0 0 0 0 0 0 0 0 0 0 0 0 -0 0 -0 0 0 0 0 0 0 -0 -0 0 0 -0 0 0
0 0 -0 0 0 0 0 0 0 0 0 0 0 0 0 0 0 0 0 0 0 0 0 0 0 0 0 0 0 -0 -0 -0 -0 0 0 -0 0 0 -0 -0 0 0 0 0 0
-0 -0 0 0 0 0 0 0 0 0 0 0 0 0 0 0 0 0 0 0 0 0 0 0 0 -0 0 0 -0 -0 -0 -0 -0 -0 0 -0 0 -0 -0 -0 -0 0 0 0 0
-0 0 -0 0 0 0 0 0 0 0 0 0 0 0 0 0 0 -0 0 0 0 0 0 0 0 -0 0 -0 0 0 -0 0 -0 -0 -0 -0 0 -0 -0 -0 -0 0 0 0 0
Wind_Speed_500mb
40 39 36 35 37 38 38 34 26 17 11 20 42 43 45 49 50 42 46 49 41 35 30 16 2 9 18 23 24 22 19 30 41 36 29 10 16 7 17 31 35 27 23 11 7
41 42 40 39 40 41 39 30 20 13 11 7 32 35 24 14 21 59 39 32 26 29 21 14 5 9 21 23 19 27 27 42 33 25 33 35 32 26 24 30 31 40 36 13 15
43 43 40 40 40 42 33 28 25 19 14 12 11 37 19 10 14 33 38 37 29 20 17 13 8 10 22 24 32 24 44 35 35 34 40 40 43 33 38 40 49 37 34 23 25
43 44 41 41 42 39 26 24 23 21 32 32 28 18 27 8 6 34 49 52 35 21 16 16 15 21 18 23 29 33 41 40 47 40 36 39 49 50 45 59 55 44 31 28 30
41 41 38 40 43 31 27 26 26 30 29 26 21 25 19 22 20 44 59 52 33 26 15 20 26 25 30 20 27 39 39 44 46 43 43 46 54 56 71 57 58 55 51 46 41
41 42 40 40 40 27 28 25 26 30 38 37 37 41 25 31 25 45 58 49 34 30 18 19 19 21 32 38 35 31 30 38 39 40 44 39 51 52 75 34 55 61 64 57 53
42 41 38 38 32 20 17 33 22 19 12 11 12 14 47 32 25 49 57 32 30 30 24 15 18 18 13 25 32 35 40 39 41 49 40 41 54 66 74 61 59 53 52 62 62
40 41 37 36 26 21 11 13 10 21 12 3 5 19 19 28 31 57 61 31 29 32 13 14 14 20 29 30 42 40 39 38 27 11 27 29 50 42 19 32 54 52 55 57 59
37 38 36 31 24 34 33 20 9 21 31 20 11 11 14 28 51 59 60 33 32 31 18 6 4 8 11 23 29 30 37 34 31 18 25 27 50 29 7 11 23 41 50 45 50
36 38 37 24 31 15 14 25 36 11 4 16 49 7 43 41 29 61 65 17 31 38 5 11 3 9 14 17 23 30 34 34 35 12 17 37 52 41 52 51 35 39 37 38 46
36 37 35 22 36 29 6 7 0 16 57 38 27 28 33 30 21 64 70 15 29 32 16 10 12 17 26 26 33 37 42 51 44 40 44 45 51 49 47 49 41 54 54 50 48
37 36 35 24 30 30 9 9 18 25 29 28 20 30 39 14 34 68 70 26 28 31 28 4 15 25 23 23 24 31 42 50 41 31 24 36 50 47 50 56 63 61 58 61 53
38 40 39 26 17 27 24 20 31 28 7 21 27 45 52 15 39 63 73 24 27 30 28 17 17 22 24 16 32 37 39 39 38 36 44 45 56 54 59 65 71 67 78 69 68
39 43 42 32 14 18 18 14 23 11 7 22 27 26 47 3 15 48 59 19 26 21 24 9 19 20 27 19 38 34 28 38 40 32 30 26 37 39 29 33 40 64 70 79 74
36 43 45 35 20 16 10 12 16 3 5 22 16 19 36 36 24 49 54 18 24 21 23 22 19 22 29 23 42 32 40 48 49 41 38 47 26 36 33 35 43 43 64 77 78
36 39 41 40 35 17 11 10 5 7 10 8 13 29 36 42 23 38 36 47 7 11 13 26 9 6 19 38 36 31 48 49 45 33 27 53 34 34 32 42 42 39 44 63 70
37 42 42 48 37 15 8 2 5 12 10 19 19 24 21 36 19 38 28 37 30 23 37 23 6 20 22 41 27 44 39 17 15 15 27 23 21 36 35 36 37 24 36 28 42
9 48 42 53 27 12 11 4 21 6 13 17 28 17 17 35 19 36 27 21 28 33 28 23 9 23 35 22 21 28 24 13 16 18 26 36 15 12 50 59 65 57 53 30 34
7 38 50 47 30 14 3 15 8 10 14 21 22 10 12 21 21 25 22 18 17 31 29 23 17 48 22 31 11 20 27 34 14 36 26 19 24 42 57 52 56 62 58 47 41
10 8 51 35 25 19 14 13 8 13 17 15 16 9 22 28 23 29 17 10 19 29 34 24 37 24 18 28 11 24 20 16 12 11 14 13 17 26 56 56 55 54 60 62 53
8 9 47 22 33 29 11 12 10 14 17 15 13 14 16 27 31 18 11 8 27 30 51 38 20 21 42 23 28 19 18 12 14 14 9 13 12 28 42 38 53 52 68 63 63
22 10 48 36 19 15 13 7 7 17 14 12 4 10 18 32 18 9 16 17 47 55 47 17 15 26 39 26 5 18 20 19 13 12 13 13 9 38 44 37 56 69 69 65 61
12 12 49 23 9 13 21 12 12 20 17 14 12 13 23 21 16 13 15 33 44 44 25 18 11 24 25 12 8 35 35 31 31 25 9 11 13 39 53 45 60 68 70 65 70
9 5 21 37 24 17 13 18 13 15 8 13 5 18 28 27 10 19 27 36 53 46 36 32 26 29 25 33 30 28 22 36 32 10 16 22 28 48 52 49 60 71 84 80 71
14 9 5 8 17 21 20 7 19 14 12 16 3 25 28 16 26 11 42 43 39 40 24 19 26 31 34 36 29 30 27 32 36 30 20 27 27 46 44 38 64 67 92 83 84
11 6 13 16 8 13 9 17 20 20 7 13 19 24 21 17 25 42 43 34 13 26 32 34 24 35 36 28 30 33 39 30 36 33 28 29 27 44 62 51 74 84 88 85 84
21 16 7 6 13 6 10 15 13 19 5 15 20 20 17 31 44 42 39 23 4 24 32 30 27 26 31 21 10 23 36 31 31 37 37 35 39 49 48 49 64 77 83 80 90
Wind_Direction_500mb
31 29 27 24 18 14 12 9 10 18 41 103 138 118 105 91 58 55 33 11 2 5 10 5 31 172 184 214 220 230 246 246 251 258 270 210 266 227 269 267 248 237 260 301 204
29 27 24 22 17 12 9 15 20 27 41 72 173 161 136 75 56 39 29 19 4 355 4 355 324 208 216 226 217 224 234 250 276 280 275 281 278 281 278 266 247 244 242 263 218
27 26 26 22 14 9 15 32 46 46 44 50 121 193 178 55 61 11 6 5 351 337 328 315 291 250 244 234 224 234 247 274 261 263 273 279 278 269 266 259 252 251 258 258 236
26 26 24 20 12 12 31 40 47 56 104 86 81 128 180 16 31 343 347 352 345 326 296 280 267 254 248 232 234 253 252 256 267 265 270 272 281 274 259 257 263 268 269 274 232
24 25 23 21 15 32 52 56 68 86 96 82 94 104 98 63 22 345 346 348 345 334 290 270 270 268 257 262 258 250 259 259 263 258 263 272 268 271 263 259 264 262 262 253 243
22 22 24 24 22 57 71 73 95 110 106 90 79 76 80 62 2 349 348 348 347 338 309 275 258 281 282 261 253 273 271 263 258 257 257 259 266 268 260 265 256 257 254 251 248
23 22 25 29 25 51 97 82 117 132 125 71 42 72 56 23 8 357 354 355 348 343 308 281 262 264 299 263 264 276 272 266 257 255 243 251 260 250 260 252 259 255 251 247 245
19 21 24 36 39 49 81 170 75 60 71 89 32 58 82 16 3 1 357 357 357 347 310 289 253 254 254 270 279 267 266 267 265 269 232 223 254 255 313 253 242 255 251 249 245
17 19 19 35 54 79 76 84 141 93 64 77 40 87 44 349 8 358 1 355 351 5 49 19 217 271 247 265 270 237 262 269 269 242 252 228 265 285 251 315 260 255 260 249 251
17 18 17 24 25 38 199 77 73 73 82 7 32 60 4 347 352 358 2 357 7 3 186 38 185 255 18 335 283 318 299 291 281 262 288 283 270 266 271 273 267 276 274 267 253
20 14 14 19 20 23 107 205 108 36 58 67 54 57 356 2 353 3 0 0 12 32 28 36 71 25 337 316 294 288 280 277 278 281 278 269 272 273 276 271 259 263 263 263 258
15 12 13 13 21 24 89 120 138 136 81 53 43 27 12 4 3 8 7 26 7 25 1 156 53 358 328 318 317 297 283 279 290 281 268 271 268 261 256 257 259 261 261 257 256
16 17 15 16 30 30 64 102 133 128 104 35 29 16 6 354 25 7 8 351 360 10 14 33 23 342 331 317 332 321 298 288 293 311 284 271 269 262 256 257 257 256 254 253 250
16 16 16 21 24 29 56 112 152 141 180 10 7 13 357 6 20 7 7 358 10 353 355 42 349 344 334 333 339 313 325 313 295 292 275 283 278 270 281 264 249 242 248 245 245
17 14 14 21 23 44 80 114 144 139 247 354 9 340 358 34 337 4 9 8 16 349 344 8 327 335 337 336 325 307 310 289 284 269 269 265 255 271 270 257 256 254 246 250 246
21 13 9 21 29 43 97 106 129 233 47 9 347 348 358 4 9 355 5 21 323 318 343 343 305 316 347 332 317 320 312 284 254 250 259 255 252 271 258 261 262 267 261 253 248
29 19 11 20 17 42 57 38 226 50 344 351 341 339 343 352 353 3 359 34 28 354 344 341 31 8 6 341 334 337 344 321 246 190 248 271 239 256 278 278 286 308 303 316 306
11 21 22 18 11 25 22 213 61 24 7 335 332 330 5 6 347 349 356 15 32 8 327 344 320 12 332 337 311 318 341 328 305 311 312 309 243 41 13 8 3 348 330 298 299
46 24 20 15 20 37 336 54 42 15 340 332 316 336 2 2 335 341 359 12 26 17 2 320 302 320 305 325 331 338 342 312 263 257 261 245 320 43 1 2 356 344 343 335 326
70 43 13 14 20 47 63 97 94 27 329 332 351 360 336 351 345 338 342 44 359 358 353 319 307 294 325 317 181 320 328 333 339 286 299 337 62 4 358 355 354 348 339 337 333
90 58 10 17 51 59 72 77 91 25 8 351 340 315 339 349 327 327 328 49 5 340 336 313 257 285 310 336 316 327 349 333 289 258 296 326 65 5 351 348 354 347 342 337 336
58 53 358 45 53 52 58 40 42 9 17 11 341 2 350 331 318 309 328 332 350 340 328 334 295 291 305 295 180 343 346 332 293 290 294 268 101 9 350 344 357 348 338 340 347
70 54 33 67 73 74 93 86 55 17 24 15 28 357 345 332 318 320 327 342 337 330 319 326 286 314 308 164 239 343 347 357 316 254 348 359 20 355 346 356 354 353 342 354 359
78 51 29 49 61 89 95 45 36 40 59 360 337 348 340 331 310 295 319 329 334 326 316 309 283 285 287 302 300 294 10 25 12 9 324 23 348 349 348 360 355 355 352 3 3
55 67 56 37 40 64 73 42 27 22 14 16 355 355 341 326 326 350 327 332 349 8 12 356 307 336 308 284 279 40 34 31 37 22 18 5 13 356 350 356 357 355 2 360 4
73 77 71 76 60 63 62 26 22 5 342 15 348 342 334 334 333 320 326 330 28 353 6 348 325 319 300 282 101 58 19 13 33 29 21 17 23 351 351 353 359 5 6 0 359
57 75 94 49 51 55 39 24 12 347 106 0 342 330 345 340 319 311 303 311 342 330 354 344 328 316 295 319 223 36 2 346 36 35 15 17 358 349 353 354 4 359 4 357 7
Wind_Speed_850mb
40 39 36 35 37 38 38 34 26 17 11 20 42 43 45 49 50 42 46 49 41 35 30 16 2 9 18 23 24 22 19 30 41 36 29 10 16 7 17 31 35 27 23 11 7
41 42 40 39 40 41 39 30 20 13 11 7 32 35 24 14 21 59 39 32 26 29 21 14 5 9 21 23 19 27 27 42 33 25 33 35 32 26 24 30 31 40 36 13 15
43 43 40 40 40 42 33 28 25 19 14 12 11 37 19 10 14 33 38 37 29 20 17 13 8 10 22 24 32 24 44 35 35 34 40 40 43 33 38 40 49 37 34 23 25
43 44 41 41 42 39 26 24 23 21 32 32 28 18 27 8 6 34 49 52 35 21 16 16 15 21 18 23 29 33 41 40 47 40 36 39 49 50 45 59 55 44 31 28 30
41 41 38 40 43 31 27 26 26 30 29 26 21 25 19 22 20 44 59 52 33 26 15 20 26 25 30 20 27 39 39 44 46 43 43 46 54 56 71 57 58 55 51 46 41
41 42 40 40 40 27 28 25 26 30 38 37 37 41 25 31 25 45 58 49 34 30 18 19 19 21 32 38 35 31 30 38 39 40 44 39 51 52 75 34 55 61 64 57 53
42 41 38 38 32 20 17 33 22 19 12 11 12 14 47 32 25 49 57 32 30 30 24 15 18 18 13 25 32 35 40 39 41 49 40 41 54 66 74 61 59 53 52 62 62
40 41 37 36 26 21 11 13 10 21 12 3 5 19 19 28 31 57 61 31 29 32 13 14 14 20 29 30 42 40 39 38 27 11 27 29 50 42 19 32 54 52 55 57 59
37 38 36 31 24 34 33 20 9 21 31 20 11 11 14 28 51 59 60 33 32 31 18 6 4 8 11 23 29 30 37 34 31 18 25 27 50 29 7 11 23 41 50 45 50
36 38 37 24 31 15 14 25 36 11 4 16 49 7 43 41 29 61 65 17 31 38 5 11 3 9 14 17 23 30 34 34 35 12 17 37 52 41 52 51 35 39 37 38 46
36 37 35 22 36 29 6 7 0 16 57 38 27 28 33 30 21 64 70 15 29 32 16 10 12 17 26 26 33 37 42 51 44 40 44 45 51 49 47 49 41 54 54 50 48
37 36 35 24 30 30 9 9 18 25 29 28 20 30 39 14 34 68 70 26 28 31 28 4 15 25 23 23 24 31 42 50 41 31 24 36 50 47 50 56 63 61 58 61 53
38 40 39 26 17 27 24 20 31 28 7 21 27 45 52 15 39 63 73 24 27 30 28 17 17 22 24 16 32 37 39 39 38 36 44 45 56 54 59 65 71 67 78 69 68
39 43 42 32 14 18 18 14 23 11 7 22 27 26 47 3 15 48 59 19 26 21 24 9 19 20 27 19 38 34 28 38 40 32 30 26 37 39 29 33 40 64 70 79 74
36 43 45 35 20 16 10 12 16 3 5 22 16 19 36 36 24 49 54 18 24 21 23 22 19 22 29 23 42 32 40 48 49 41 38 47 26 36 33 35 43 43 64 77 78
36 39 41 40 35 17 11 10 5 7 10 8 13 29 36 42 23 38 36 47 7 11 13 26 9 6 19 38 36 31 48 49 45 33 27 53 34 34 32 42 42 39 44 63 70
37 42 42 48 37 15 8 2 5 12 10 19 19 24 21 36 19 38 28 37 30 23 37 23 6 20 22 41 27 44 39 17 15 15 27 23 21 36 35 36 37 24 36 28 42
9 48 42 53 27 12 11 4 21 6 13 17 28 17 17 35 19 36 27 21 28 33 28 23 9 23 35 22 21 28 24 13 16 18 26 36 15 12 50 59 65 57 53 30 34
7 38 50 47 30 14 3 15 8 10 14 21 22 10 12 21 21 25 22 18 17 31 29 23 17 48 22 31 11 20 27 34 14 36 26 19 24 42 57 52 56 62 58 47 41
10 8 51 35 25 19 14 13 8 13 17 15 16 9 22 28 23 29 17 10 19 29 34 24 37 24 18 28 11 24 20 16 12 11 14 13 17 26 56 56 55 54 60 62 53
8 9 47 22 33 29 11 12 10 14 17 15 13 14 16 27 31 18 11 8 27 30 51 38 20 21 42 23 28 19 18 12 14 14 9 13 12 28 42 38 53 52 68 63 63
22 10 48 36 19 15 13 7 7 17 14 12 4 10 18 32 18 9 16 17 47 55 47 17 15 26 39 26 5 18 20 19 13 12 13 13 9 38 44 37 56 69 69 65 61
12 12 49 23 9 13 21 12 12 20 17 14 12 13 23 21 16 13 15 33 44 44 25 18 11 24 25 12 8 35 35 31 31 25 9 11 13 39 53 45 60 68 70 65 70
9 5 21 37 24 17 13 18 13 15 8 13 5 18 28 27 10 19 27 36 53 46 36 32 26 29 25 33 30 28 22 36 32 10 16 22 28 48 52 49 60 71 84 80 71
14 9 5 8 17 21 20 7 19 14 12 16 3 25 28 16 26 11 42 43 39 40 24 19 26 31 34 36 29 30 27 32 36 30 20 27 27 46 44 38 64 67 92 83 84
11 6 13 16 8 13 9 17 20 20 7 13 19 24 21 17 25 42 43 34 13 26 32 34 24 35 36 28 30 33 39 30 36 33 28 29 27 44 62 51 74 84 88 85 84
21 16 7 6 13 6 10 15 13 19 5 15 20 20 17 31 44 42 39 23 4 24 32 30 27 26 31 21 10 23 36 31 31 37 37 35 39 49 48 49 64 77 83 80 90
Wind_Direction_850mb
31 29 27 24 18 14 12 9 10 18 41 103 138 118 105 91 58 55 33 11 2 5 10 5 31 172 184 214 220 230 246 246 251 258 270 210 266 227 269 267 248 237 260 301 204
29 27 24 22 17 12 9 15 20 27 41 72 173 161 136 75 56 39 29 19 4 355 4 355 324 208 216 226 217 224 234 250 276 280 275 281 278 281 278 266 247 244 242 263 218
27 26 26 22 14 9 15 32 46 46 44 50 121 193 178 55 61 11 6 5 351 337 328 315 291 250 244 234 224 234 247 274 261 263 273 279 278 269 266 259 252 251 258 258 236
26 26 24 20 12 12 31 40 47 56 104 86 81 128 180 16 31 343 347 352 345 326 296 280 267 254 248 232 234 253 252 256 267 265 270 272 281 274 259 257 263 268 269 274 232
24 25 23 21 15 32 52 56 68 86 96 82 94 104 98 63 22 345 346 348 345 334 290 270 270 268 257 262 258 250 259 259 263 258 263 272 268 271 263 259 264 262 262 253 243
22 22 24 24 22 57 71 73 95 110 106 90 79 76 80 62 2 349 348 348 347 338 309 275 258 281 282 261 253 273 271 263 258 257 257 259 266 268 260 265 256 257 254 251 248
23 22 25 29 25 51 97 82 117 132 125 71 42 72 56 23 8 357 354 355 348 343 308 281 262 264 299 263 264 276 272 266 257 255 243 251 260 250 260 252 259 255 251 247 245
19 21 24 36 39 49 81 170 75 60 71 89 32 58 82 16 3 1 357 357 357 347 310 289 253 254 254 270 279 267 266 267 265 269 232 223 254 255 313 253 242 255 251 249 245
17 19 19 35 54 79 76 84 141 93 64 77 40 87 44 349 8 358 1 355 351 5 49 19 217 271 247 265 270 237 262 269 269 242 252 228 265 285 251 315 260 255 260 249 251
17 18 17 24 25 38 199 77 73 73 82 7 32 60 4 347 352 358 2 357 7 3 186 38 185 255 18 335 283 318 299 291 281 262 288 283 270 266 271 273 267 276 274 267 253
20 14 14 19 20 23 107 205 108 36 58 67 54 57 356 2 353 3 0 0 12 32 28 36 71 25 337 316 294 288 280 277 278 281 278 269 272 273 276 271 259 263 263 263 258
15 12 13 13 21 24 89 120 138 136 81 53 43 27 12 4 3 8 7 26 7 25 1 156 53 358 328 318 317 297 283 279 290 281 268 271 268 261 256 257 259 261 261 257 256
16 17 15 16 30 30 64 102 133 128 104 35 29 16 6 354 25 7 8 351 360 10 14 33 23 342 331 317 332 321 298 288 293 311 284 271 269 262 256 257 257 256 254 253 250
16 16 16 21 24 29 56 112 152 141 180 10 7 13 357 6 20 7 7 358 10 353 355 42 349 344 334 333 339 313 325 313 295 292 275 283 278 270 281 264 249 242 248 245 245
17 14 14 21 23 44 80 114 144 139 247 354 9 340 358 34 337 4 9 8 16 349 344 8 327 335 337 336 325 307 310 289 284 269 269 265 255 271 270 257 256 254 246 250 246
21 13 9 21 29 43 97 106 129 233 47 9 347 348 358 4 9 355 5 21 323 318 343 343 305 316 347 332 317 320 312 284 254 250 259 255 252 271 258 261 262 267 261 253 248
29 19 11 20 17 42 57 38 226 50 344 351 341 339 343 352 353 3 359 34 28 354 344 341 31 8 6 341 334 337 344 321 246 190 248 271 239 256 278 278 286 308 303 316 306
11 21 22 18 11 25 22 213 61 24 7 335 332 330 5 6 347 349 356 15 32 8 327 344 320 12 332 337 311 318 341 328 305 311 312 309 243 41 13 8 3 348 330 298 299
46 24 20 15 20 37 336 54 42 15 340 332 316 336 2 2 335 341 359 12 26 17 2 320 302 320 305 325 331 338 342 312 263 257 261 245 320 43 1 2 356 344 343 335 326
70 43 13 14 20 47 63 97 94 27 329 332 351 360 336 351 345 338 342 44 359 358 353 319 307 294 325 317 181 320 328 333 339 286 299 337 62 4 358 355 354 348 339 337 333
90 58 10 17 51 59 72 77 91 25 8 351 340 315 339 349 327 327 328 49 5 340 336 313 257 285 310 336 316 327 349 333 289 258 296 326 65 5 351 348 354 347 342 337 336
58 53 358 45 53 52 58 40 42 9 17 11 341 2 350 331 318 309 328 332 350 340 328 334 295 291 305 295 180 343 346 332 293 290 294 268 101 9 350 344 357 348 338 340 347
70 54 33 67 73 74 93 86 55 17 24 15 28 357 345 332 318 320 327 342 337 330 319 326 286 314 308 164 239 343 347 357 316 254 348 359 20 355 346 356 354 353 342 354 359
78 51 29 49 61 89 95 45 36 40 59 360 337 348 340 331 310 295 319 329 334 326 316 309 283 285 287 302 300 294 10 25 12 9 324 23 348 349 348 360 355 355 352 3 3
55 67 56 37 40 64 73 42 27 22 14 16 355 355 341 326 326 350 327 332 349 8 12 356 307 336 308 284 279 40 34 31 37 22 18 5 13 356 350 356 357 355 2 360 4
73 77 71 76 60 63 62 26 22 5 342 15 348 342 334 334 333 320 326 330 28 353 6 348 325 319 300 282 101 58 19 13 33 29 21 17 23 351 351 353 359 5 6 0 359
57 75 94 49 51 55 39 24 12 347 106 0 342 330 345 340 319 311 303 311 342 330 354 344 328 316 295 319 223 36 2 346 36 35 15 17 358 349 353 354 4 359 4 357 7